sat.trackr.live / text

‹ back to catalog

STARLINK-3575

NORAD 51878 · 2022-022AC

PAYLOAD ACTIVE UNKNOWN

§ Identity

Operator
Country
US
Launch date
2022-03-03
Launch site
AFETR
Launch vehicle
Mass (kg)
RCS (m²)

Purposes: comms

External: N2YO · Heavens-Above · Gunter

§ Orbital elements

Epoch: 2026-05-25T02:34:02.703936Z

Period
95.44 min
Inclination
53.2132°
Eccentricity
0.0001833
Mean motion
15.08851412 rev/d
Perigee alt
538.4 km
Apogee alt
541.0 km
Semi-major
6,917.8 km
B*
-8.5276e-5
RAAN
26.0680°
Arg perigee
89.5352°
Mean anomaly
270.5850°
Rev number
23,465

§ Raw data

STARLINK-35751 51878U 22022AC  26145.10697574 -.00001646  00000+0 -85276-4 0  99942 51878  53.2132  26.0680 0001833  89.5352 270.5850 15.08851412234658

JSON: /api/v1/satellites/51878 · /tle

For live sub-satellite position, see the globe view (requires WebGL).

§ Visibility from observer

Set your observer location to see the next 7 days of passes ≥ 10°. The values pass through the URL so the page stays shareable.

No JS? Fill the form by hand. The geolocation button needs JavaScript.